NOAA 16 DEB, 41144

Orbit data source: Space-Track

NOAA 16 DEB, 41144 is space debris in SSO originally from a launch on Thu, 21 Sep 2000 UTC launched from the Air Force Western Test Range (AFWTR). Debris objects in space refer to the collection of defunct objects orbiting the Earth. Examples of debris include non-operational satellites, rocket bodies, and fragments generated from explosions, collisions, or faulty payload assembly.

Loading next visibility...
Identifier
41144, 2000-055CB
Orbit
SSO
Country
Flag of USUS
Related business
Manufacturer
Unknown
Mission
Spacecraft
Bus & Motor
Unknown
Mass
Unknown
Launch date (UTC)
2000-09-21 (25 years ago)
Launch vehicle
Unknown
Launch site
Air Force Western Test Range (AFWTR)
Object type
Payload
Rocket body
Debris
Shape & HBR
Unknown shape, 0.1 m
Radar Cross Section
Small (<0.1 m²)

Expand to show TLE details & history
Last TLE update: 3 days ago

TLE from 3 days ago
0 NOAA 16 DEB
1 41144U 00055CB  25284.86743309  .00004661  00000-0  18762-2 0  9998
2 41144  98.6174 332.0688 0030034 141.0977 219.2374 14.28274119510193
Epoch: 2025-10-11T20:49Z
TLE epoch observation values (Epoch: 2025-10-11T20:49:06.218Z)
Latitude
0.00001°
Longitude
-0.89987°
Altitude
817.156 km
Speed
7.436 km/s
True Right ascension
22h 08m 16s
True Declination
0° 00' 00"
Sunlit
Object was in full shadow at epoch
Visualization orbit readout
Latitude
Unknown
Longitude
Unknown
Altitude
Unknown
Speed
Unknown
Apparent Right ascension
Unknown
Apparent Declination
Unknown
Sunlit
N/A
Visualization observer readout
Local Sidereal Time
08:47:00
Azimuth
Unknown
Elevation
Unknown
Doppler factor
Unknown
Orbital elements
Apogee altitude
816.191 km
Perigee altitude
773.106 km
Semi-major axis
7,172.786 km
Eccentricity
0.003
Inclination
98.6174°
RAAN
332.0688°
Arg. of periapsis
141.0977°
True anomaly
219.02034°
Mean anomaly
219.2374°
Eccentric anomaly
219.1288°
Mean motion
3.57282 °/min
Orbital period
100.76 mins
BSTAR
0.0018762
Loading maneuver chart data...
Computing Atmospheric mass density...

Documentation

Showing up to 5 results
|